This is the latest recevied weather packets stored in our database for station/object KI2K. If no packets are shown the sender has not sent any weather packets the latest 10 day(s).
| Time | Temp. | Humidity | Pressure | Rain* | Wind** | Luminosity | Snow |
|---|---|---|---|---|---|---|---|
| 1777983896 | 13.89° C | 99% | 1007 hPa | 0 mm | - | 111 W/m² | - |
| 1777983593 | 13.33° C | 99% | 1006.9 hPa | 0 mm | - | 89 W/m² | - |
| 1777983289 | 13.33° C | 99% | 1007 hPa | 0 mm | - | 73 W/m² | - |
| 1777982985 | 13.33° C | 99% | 1007.1 hPa | 0 mm | - | 66 W/m² | - |
| 1777982682 | 13.89° C | 99% | 1007.1 hPa | 0 mm | - | 66 W/m² | - |
| 1777982381 | 13.33° C | 99% | 1006.7 hPa | 0 mm | - | 74 W/m² | - |
| 1777982078 | 13.33° C | 99% | 1006.6 hPa | 0 mm | - | 76 W/m² | - |
| 1777981776 | 12.78° C | 99% | 1006.7 hPa | 0 mm | - | 66 W/m² | - |
| 1777981472 | 12.78° C | 99% | 1006.8 hPa | 0 mm | - | 52 W/m² | - |
| 1777981168 | 12.78° C | 99% | 1006.7 hPa | 0 mm | - | 45 W/m² | - |
| 1777980865 | 12.78° C | 99% | 1006.5 hPa | 0 mm | - | 35 W/m² | - |
| 1777980561 | 12.78° C | 99% | 1006.7 hPa | 0 mm | - | 28 W/m² | - |
| 1777980259 | 12.78° C | 99% | 1006.2 hPa | 0 mm | - | 23 W/m² | - |
| 1777979954 | 12.78° C | 99% | 1006.1 hPa | 0 mm | - | 19 W/m² | - |
| 1777979649 | 12.78° C | 99% | 1006.2 hPa | 0 mm | - | 14 W/m² | - |
| 1777979346 | 12.78° C | 99% | 1006 hPa | 0 mm | - | 10 W/m² | - |
| 1777979043 | 12.78° C | 99% | 1005.6 hPa | 0 mm | - | 4 W/m² | - |
| 1777978739 | 12.78° C | 99% | 1005.6 hPa | 0 mm | - | 0 W/m² | - |
| 1777978436 | 12.78° C | 99% | 1005.5 hPa | 0 mm | - | 2 W/m² | - |
| 1777978133 | 12.78° C | 99% | 1005.7 hPa | 0 mm | - | 0 W/m² | - |
| 1777977830 | 12.78° C | 99% | 1005.8 hPa | 0 mm | - | 0 W/m² | - |
| 1777977525 | 12.78° C | 99% | 1005.8 hPa | 0 mm | - | 0 W/m² | - |
| 1777977223 | 12.78° C | 99% | 1005.6 hPa | 0 mm | - | 0 W/m² | - |
| 1777976921 | 12.78° C | 99% | 1005.7 hPa | 0 mm | - | 0 W/m² | - |
| 1777976618 | 12.78° C | 99% | 1006 hPa | 0 mm | - | 0 W/m² | - |
* Rain latest hour (hover to see other rain measurements)
** Current wind speed in m/s (hover to see current wind gust speed)